Date String (YYYY-MM-DD hh:mm:ss) UTC,Instrument flags,absolute air pressure of the measurement (hPa),sample flow rate (lpm),inlet stack bypass flow (lpm),air temperature of the measurement (°C),ambient temperature measured by the external sensor (°C),aerosol sample conditioner tube jacket temperature (°C),OPC LED temperature (°C),internal box temperature (°C),relative humidity of the measurement (%),span deviation,mass concentration of particles derived from Lorenz-Mie calculation of OPC scattering (μg/m³),mass concentration of particles derived from Lorenz-Mie calculation of OPC scattering (μg/m³),mass concentration of particles derived from Lorenz-Mie calculation of OPC scattering (μg/m³)
DateTimeUTC,F1_M11,P_M11,Q1_M11,Q2_M11,T1_M11,T2_M11,T3_M11,T4_M11,T5_M11,U1_M11,ZSPAN_M11,X2_M11,X0_M11,X1_M11
2023-11-28 00:00:00,SystemResetWarning,0833.0,5.00,000.00,023.4,022.5,000.0,031.7,024.7,9.2,0000.0,0004.71,0012.20,0003.93
2023-11-28 00:01:00,SystemResetWarning,0832.9,5.00,000.00,023.4,022.5,000.0,031.7,024.7,9.3,0000.0,0004.71,0013.20,0003.93
2023-11-28 00:02:00,SystemResetWarning,0832.9,5.01,000.00,023.4,022.5,000.0,031.7,024.7,9.3,0000.0,0004.71,0013.89,0003.94
2023-11-28 00:03:00,SystemResetWarning,0832.9,4.99,000.00,023.4,022.5,000.0,031.7,024.7,9.3,0000.0,0004.72,0014.02,0003.95
2023-11-28 00:04:00,SystemResetWarning,0833.0,5.00,000.00,023.4,022.5,000.0,031.7,024.8,9.4,0000.0,0004.74,0013.64,0003.96
2023-11-28 00:05:00,SystemResetWarning,0833.3,4.99,000.00,023.4,022.5,000.0,031.7,024.8,9.4,0000.0,0004.72,0012.88,0003.97
2023-11-28 00:06:00,SystemResetWarning,0833.5,5.00,000.00,023.4,022.5,000.0,031.7,024.8,9.4,0000.0,0004.74,0012.99,0003.98
2023-11-28 00:07:00,SystemResetWarning,0833.3,5.00,000.00,023.5,022.5,000.0,031.7,024.8,9.4,0000.0,0004.74,0013.20,0003.98
2023-11-28 00:08:00,SystemResetWarning,0833.0,5.01,000.00,023.5,022.5,000.0,031.7,024.8,9.4,0000.0,0004.70,0012.94,0003.98
2023-11-28 00:09:00,SystemResetWarning,0832.9,5.01,000.00,023.5,022.5,000.0,031.7,024.8,9.4,0000.0,0004.67,0012.16,0003.97
2023-11-28 00:10:00,SystemResetWarning,0833.0,4.99,000.00,023.5,022.5,000.0,031.7,024.8,9.4,0000.0,0004.61,0011.64,0003.94
2023-11-28 00:11:00,SystemResetWarning,0832.9,5.01,000.00,023.5,022.5,000.0,031.7,024.8,9.4,0000.0,0004.55,0011.49,0003.91
2023-11-28 00:12:00,SystemResetWarning,0832.9,5.00,000.00,023.5,022.5,000.0,031.7,024.8,9.4,0000.0,0004.52,0010.34,0003.90
2023-11-28 00:13:00,SystemResetWarning,0833.0,5.01,000.00,023.5,022.5,000.0,031.7,024.8,9.4,0000.0,0004.57,0009.76,0003.89
2023-11-28 00:14:00,SystemResetWarning,0833.0,5.00,000.00,023.5,022.5,000.0,031.7,024.8,9.5,0000.0,0004.54,0009.48,0003.86
2023-11-28 00:15:00,SystemResetWarning,0833.0,5.01,000.00,023.5,022.5,000.0,031.7,024.7,9.5,0000.0,0004.51,0009.43,0003.83
2023-11-28 00:16:00,SystemResetWarning,0832.9,5.00,000.00,023.5,022.5,000.0,031.7,024.7,9.5,0000.0,0004.52,0009.52,0003.82
2023-11-28 00:17:00,SystemResetWarning,0833.0,5.00,000.00,023.4,022.5,000.0,031.7,024.7,9.5,0000.0,0004.49,0009.60,0003.79
2023-11-28 00:18:00,SystemResetWarning,0833.0,5.00,000.00,023.4,022.5,000.0,031.7,024.7,9.5,0000.0,0004.44,0009.59,0003.77
2023-11-28 00:19:00,SystemResetWarning,0833.3,5.00,000.00,023.4,022.5,000.0,031.7,024.7,9.4,0000.0,0004.39,0009.47,0003.74
2023-11-28 00:20:00,SystemResetWarning,0833.3,4.99,000.00,023.4,022.5,000.0,031.7,024.7,9.5,0000.0,0004.37,0011.33,0003.73
2023-11-28 00:21:00,SystemResetWarning,0833.3,4.99,000.00,023.4,022.5,000.0,031.7,024.7,9.5,0000.0,0004.40,0011.47,0003.73
2023-11-28 00:22:00,SystemResetWarning,0833.5,5.00,000.00,023.4,022.4,000.0,031.7,024.6,9.5,0000.0,0004.41,0010.96,0003.73
2023-11-28 00:23:00,SystemResetWarning,0833.4,5.00,000.00,023.4,022.4,000.0,031.7,024.6,9.5,0000.0,0004.40,0010.94,0003.73
2023-11-28 00:24:00,SystemResetWarning,0833.2,5.01,000.00,023.4,022.4,000.0,031.7,024.6,9.4,0000.0,0004.38,0010.98,0003.72
2023-11-28 00:25:00,SystemResetWarning,0833.1,5.00,000.00,023.4,022.4,000.0,031.7,024.7,9.4,0000.0,0004.36,0010.91,0003.72
2023-11-28 00:26:00,SystemResetWarning,0833.0,5.00,000.00,023.4,022.4,000.0,031.7,024.7,9.4,0000.0,0004.34,0010.91,0003.72
2023-11-28 00:27:00,SystemResetWarning,0833.0,5.01,000.00,023.4,022.4,000.0,031.7,024.7,9.4,0000.0,0004.33,0011.09,0003.72
2023-11-28 00:28:00,SystemResetWarning,0833.0,5.01,000.00,023.4,022.4,000.0,031.7,024.7,9.4,0000.0,0004.35,0011.64,0003.71
2023-11-28 00:29:00,SystemResetWarning,0833.2,4.99,000.00,023.4,022.4,000.0,031.7,024.7,9.4,0000.0,0004.37,0011.49,0003.72
2023-11-28 00:30:00,SystemResetWarning,0833.1,4.99,000.00,023.4,022.4,000.0,031.7,024.7,9.4,0000.0,0004.37,0011.23,0003.72
2023-11-28 00:31:00,SystemResetWarning,0833.2,5.00,000.00,023.4,022.4,000.0,031.7,024.7,9.4,0000.0,0004.35,0010.10,0003.72
2023-11-28 00:32:00,SystemResetWarning,0833.2,5.00,000.00,023.4,022.4,000.0,031.7,024.7,9.4,0000.0,0004.34,0010.21,0003.72
2023-11-28 00:33:00,SystemResetWarning,0833.2,5.00,000.00,023.4,022.4,000.0,031.7,024.6,9.4,0000.0,0004.34,0011.02,0003.72
2023-11-28 00:34:00,SystemResetWarning,0833.2,5.00,000.00,023.3,022.3,000.0,031.7,024.6,9.4,0000.0,0004.38,0011.17,0003.72
2023-11-28 00:35:00,SystemResetWarning,0833.2,5.00,000.00,023.3,022.3,000.0,031.7,024.6,9.4,0000.0,0004.39,0011.63,0003.73
2023-11-28 00:36:00,SystemResetWarning,0833.2,5.00,000.00,023.3,022.3,000.0,031.7,024.5,9.3,0000.0,0004.37,0012.16,0003.73
2023-11-28 00:37:00,SystemResetWarning,0833.2,5.00,000.00,023.3,022.3,000.0,031.6,024.5,9.3,0000.0,0004.38,0012.23,0003.73
2023-11-28 00:38:00,SystemResetWarning,0833.2,5.00,000.00,023.3,022.2,000.0,031.6,024.5,9.3,0000.0,0004.39,0012.09,0003.74
2023-11-28 00:39:00,SystemResetWarning,0833.2,5.00,000.00,023.3,022.2,000.0,031.6,024.5,9.4,0000.0,0004.38,0011.34,0003.76
2023-11-28 00:40:00,SystemResetWarning,0833.2,5.00,000.00,023.3,022.2,000.0,031.6,024.4,9.4,0000.0,0004.38,0011.33,0003.76
2023-11-28 00:41:00,SystemResetWarning,0833.2,5.00,000.00,023.2,022.2,000.0,031.6,024.5,9.4,0000.0,0004.41,0011.37,0003.78
2023-11-28 00:42:00,SystemResetWarning,0833.2,5.00,000.00,023.2,022.2,000.0,031.6,024.4,9.4,0000.0,0004.50,0011.45,0003.80
2023-11-28 00:43:00,SystemResetWarning,0833.3,4.99,000.00,023.2,022.1,000.0,031.6,024.4,9.5,0000.0,0004.54,0010.63,0003.84
2023-11-28 00:44:00,SystemResetWarning,0833.3,4.99,000.00,023.2,022.1,000.0,031.6,024.4,9.5,0000.0,0004.53,0009.83,0003.85
2023-11-28 00:45:00,SystemResetWarning,0833.3,5.00,000.00,023.2,022.1,000.0,031.6,024.4,9.5,0000.0,0004.51,0009.70,0003.86
2023-11-28 00:46:00,SystemResetWarning,0833.2,5.00,000.00,023.1,022.0,000.0,031.6,024.4,9.5,0000.0,0004.54,0009.27,0003.88
2023-11-28 00:47:00,SystemResetWarning,0833.2,5.01,000.00,023.1,022.0,000.0,031.5,024.4,9.5,0000.0,0004.55,0008.55,0003.89
2023-11-28 00:48:00,SystemResetWarning,0833.2,5.01,000.00,023.1,022.0,000.0,031.5,024.3,9.5,0000.0,0004.56,0008.57,0003.89
2023-11-28 00:49:00,SystemResetWarning,0833.3,5.00,000.00,023.1,022.0,000.0,031.5,024.3,9.5,0000.0,0004.57,0008.60,0003.89
2023-11-28 00:50:00,SystemResetWarning,0833.2,4.99,000.00,023.1,022.0,000.0,031.5,024.3,9.5,0000.0,0004.57,0008.66,0003.89
2023-11-28 00:51:00,SystemResetWarning,0833.2,4.99,000.00,023.1,022.0,000.0,031.5,024.3,9.5,0000.0,0004.63,0008.87,0003.90
2023-11-28 00:52:00,SystemResetWarning,0833.2,5.00,000.00,023.1,022.0,000.0,031.5,024.2,9.5,0000.0,0004.62,0009.07,0003.91
2023-11-28 00:53:00,SystemResetWarning,0833.2,5.01,000.00,023.0,022.0,000.0,031.5,024.2,9.5,0000.0,0004.58,0008.89,0003.90
2023-11-28 00:54:00,SystemResetWarning,0833.2,5.00,000.00,023.0,021.9,000.0,031.4,024.2,9.4,0000.0,0004.55,0008.81,0003.89
2023-11-28 00:55:00,SystemResetWarning,0833.2,5.00,000.00,023.0,021.9,000.0,031.4,024.2,9.4,0000.0,0004.58,0008.85,0003.89
2023-11-28 00:56:00,SystemResetWarning,0833.3,5.01,000.00,023.0,021.9,000.0,031.4,024.2,9.4,0000.0,0004.59,0008.97,0003.89
2023-11-28 00:57:00,SystemResetWarning,0833.2,4.99,000.00,022.9,021.9,000.0,031.4,024.2,9.4,0000.0,0004.60,0009.08,0003.87
2023-11-28 00:58:00,SystemResetWarning,0833.2,4.99,000.00,022.9,021.9,000.0,031.4,024.2,9.3,0000.0,0004.61,0009.56,0003.87
2023-11-28 00:59:00,SystemResetWarning,0833.3,5.00,000.00,022.9,021.8,000.0,031.4,024.2,9.3,0000.0,0004.64,0010.06,0003.87
